Haleyville, AL

1:06 AM CDT on April 30, 2017 (GMT -0500)
Haleyville

Weather History for K1M4 - October, 2012

Change the Weather History Date:

Sunday, October 21, 2012

  Actual Average (KJFX) Record (KJFX)
Temperature  
Mean Temperature 58 °F -  
Max Temperature 75 °F 71 °F 87 °F (1963)
Min Temperature 41 °F 44 °F 29 °F (1964)
Degree Days  
Heating Degree Days 7    
Growing Degree Days 8 (Base 50)    
Moisture  
Dew Point 49 °F    
Average Humidity 80    
Maximum Humidity 100    
Minimum Humidity 41    
Precipitation  
Precipitation 0.00 in - - ()
Sea Level Pressure  
Sea Level Pressure 30.15 in    
Wind  
Wind Speed 0 mph (SSE)    
Max Wind Speed 7 mph    
Max Gust Speed -    
Visibility 10 miles    
Events Rain    
Averages and records for this station are not official NWS values.
T = Trace of Precipitation, MM = Missing Value Source: NWS Daily Summary

Daily Weather History Graph

Daily Weather History Graph

Search for Another Location

Airport or City:

Trip Planner

Search our weather history database for the weather conditions in past years. The results will help you decide how hot, cold, wet, or windy it might be!

Date:

Astronomy

Oct. 21, 2012 Rise Set
Actual Time 7:01 AM CDT 6:08 PM CDT
Civil Twilight 6:35 AM CDT 6:33 PM CDT
Nautical Twilight 6:06 AM CDT 7:02 PM CDT
Astronomical Twilight 5:37 AM CDT 7:32 PM CDT
Moon 1:16 PM CDT (10/21) No Moon Set
Length of Visible Light 11h 58m
Length of Day
11h 07m
Waxing Crescent, 45% of the Moon is Illuminated
Oct 21
Waxing Crescent
Oct 21
First Quarter
Oct 29
Full
Nov 6
Last Quarter
Nov 13
New

Hourly Weather History & Observations

Time (CDT) Temp. Dew Point Humidity Pressure Visibility Wind Dir Wind Speed Gust Speed Precip Events Conditions
12:56 AM 43.9 °F 43.9 °F 100% 30.07 in 8.0 mi Calm Calm - N/A   Clear
1:56 AM 43.0 °F 43.0 °F 100% 30.08 in 9.0 mi Calm Calm - N/A   Clear
2:56 AM 41.9 °F 41.9 °F 100% 30.09 in 8.0 mi Calm Calm - N/A   Clear
3:56 AM 41.9 °F 41.9 °F 100% 30.11 in 8.0 mi Calm Calm - N/A   Clear
4:56 AM 41.9 °F 41.9 °F 100% 30.12 in 10.0 mi Calm Calm - N/A   Clear
5:56 AM 41.9 °F 41.9 °F 100% 30.15 in 9.0 mi Calm Calm - N/A   Clear
6:56 AM 41.9 °F 41.9 °F 100% 30.16 in 7.0 mi Calm Calm - N/A   Clear
7:56 AM 46.9 °F 46.9 °F 100% 30.17 in 10.0 mi Calm Calm - N/A   Clear
8:56 AM 57.9 °F 48.9 °F 72% 30.19 in 10.0 mi Calm Calm - N/A   Clear
9:56 AM 63.0 °F 48.9 °F 60% 30.20 in 10.0 mi Calm Calm - 0.00 in Rain Light Rain
12:56 PM 73.9 °F 48.9 °F 41% 30.17 in 10.0 mi Variable 3.5 mph - 0.00 in   Clear
1:56 PM 74.8 °F 50.0 °F 42% 30.16 in 10.0 mi Calm Calm - 0.00 in   Clear
2:56 PM 75.9 °F 50.9 °F 41% 30.15 in 10.0 mi Calm Calm - N/A   Clear
3:56 PM 75.9 °F 52.0 °F 43% 30.14 in 10.0 mi SSE 6.9 mph - N/A   Clear
5:56 PM 68.9 °F 54.9 °F 61% 30.16 in 10.0 mi Calm Calm - 0.00 in   Clear
6:56 PM 61.0 °F 55.9 °F 83% 30.16 in 10.0 mi Calm Calm - 0.00 in   Clear
7:56 PM 57.9 °F 54.9 °F 90% 30.17 in 10.0 mi Calm Calm - N/A   Clear
8:56 PM 57.9 °F 54.9 °F 90% 30.17 in 10.0 mi Calm Calm - N/A   Clear
9:56 PM 54.9 °F 54.0 °F 97% 30.18 in 10.0 mi Calm Calm - N/A   Clear
11:56 PM 56.8 °F 52.9 °F 87% 30.18 in 10.0 mi Calm Calm - 0.00 in   Clear